Date,TemperatureHighF,TemperatureAvgF,TemperatureLowF,DewpointHighF,DewpointAvgF,DewpointLowF,HumidityHigh,HumidityAvg,HumidityLow,PressureMaxIn,PressureMinIn,WindSpeedMaxMPH,WindSpeedAvgMPH,GustSpeedMaxMPH,PrecipitationSumIn
2013-11-1,70,59,47,57,49,41,91,70,41,29.65,29.35,18,2,30,0.42
2013-11-2,53,47,43,46,43,38,97,86,66,29.88,29.59,12,0,12,0.17
2013-11-3,50,42,29,39,31,22,91,69,34,30.38,29.88,23,0,23,0.03
2013-11-4,53,38,26,31,28,25,96,69,37,30.50,30.33,10,0,10,0.00
2013-11-5,58,43,32,38,32,28,91,67,31,30.48,30.30,6,0,6,0.00
2013-11-6,71,50,32,49,41,31,98,75,43,30.32,29.85,18,1,18,0.00
2013-11-7,63,48,38,54,40,22,96,75,50,30.08,29.78,15,1,15,0.49
2013-11-8,44,37,27,28,26,23,90,65,46,30.27,30.05,17,1,17,0.00
2013-11-9,59,39,26,31,23,8,95,63,14,30.26,29.97,10,0,16,0.00
2013-11-10,50,45,33,34,27,20,74,50,32,30.24,29.93,23,2,23,0.00
2013-11-11,58,42,26,30,21,6,92,53,13,30.28,29.94,18,0,18,0.00
2013-11-12,54,31,26,37,25,17,93,77,35,30.43,29.94,14,0,18,0.21
2013-11-13,31,26,21,19,18,17,88,74,58,30.51,30.41,4,0,4,0.01
2013-11-14,50,30,17,26,19,11,90,71,21,30.42,30.19,1,0,1,0.02
2013-11-15,58,37,22,40,26,14,95,71,20,30.28,30.09,1,0,1,0.07
2013-11-16,64,47,39,50,44,39,100,90,57,30.20,30.03,3,0,4,0.06
2013-11-17,66,54,42,58,50,40,97,86,63,30.05,29.51,16,1,32,0.09
2013-11-18,64,50,41,46,33,25,87,54,33,29.94,29.53,32,2,32,0.08
2013-11-19,42,35,28,27,24,22,82,64,57,30.32,29.94,24,1,24,0.00
2013-11-20,49,36,24,24,16,4,88,52,18,30.39,30.28,22,1,22,0.00
2013-11-21,57,42,28,42,32,18,88,70,52,30.40,30.21,11,0,11,0.00
2013-11-22,55,48,42,55,46,39,99,93,87,30.23,29.99,16,0,16,0.49
2013-11-23,46,33,22,40,25,8,93,71,50,30.26,30.07,21,1,21,0.02
2013-11-24,24,18,13,12,5,1,76,57,41,30.50,30.24,21,2,21,0.00
2013-11-25,40,25,12,22,12,7,83,62,27,30.52,30.19,5,0,5,0.00
2013-11-26,44,37,32,44,34,21,100,92,54,30.21,29.56,7,0,11,1.01
2013-11-27,42,29,21,37,25,13,97,84,68,30.09,29.57,11,0,11,0.03
2013-11-28,29,24,21,21,16,11,80,70,54,30.39,30.07,1,0,1,0.05
2013-11-29,37,29,21,22,20,18,89,70,49,30.58,30.38,0,0,0,0.05
2013-11-30,40,27,18,28,22,16,93,83,57,30.56,30.23,0,0,0,0.02